Location: Ar Ranvel
(48.3000°N, 4.8833°W)
Time: 04:08:53
(UTC+00:00)

Cosmos 2322 Rocket - Pass Details

Date: 24 October 2021
Orbit: 832 x 851 km, 71.0° (Epoch: 01 December)

Event Time Altitude Azimuth Distance (km) Brightness Sun altitude
Exits shadow 03:16:29 37° 77° (ENE) 1,297 3.5 -35.9°
Drops below altitude 10° 03:20:48 10° 121° (ESE) 2,466 4.9 -35.3°
Sets 03:23:25 0° 129° (SE) 3,401 5.7 -34.9°
